Regional Weather Roundup
Issued by NWS

Home | Current Version | Previous Version | Text Only | Print | Product List | Glossary Off
Versions: 1 2 3 4 5 6 7 8 9 10 11 12 13 14 15 16 17 18 19 20 21 22 23 24 25 26 27 28 29 30 31 32 33 34 35 36 37 38 39 40 41 42 43 44 45 46 47 48 49 50

000
ASUS43 KOAX 290402
RWRNE

WEATHER ROUNDUP FOR NEBRASKA
NATIONAL WEATHER SERVICE OMAHA NE
1100 PM CDT SUN AUG 28 2016

NOTES: SATELLITE DATA IS BEING USED TO AUGMENT CLOUD COVER ABOVE
       12000 FEET.
       "FAIR" INDICATES FEW OR NO CLOUDS BELOW 12,000 FEET WITH NO
       SIGNIFICANT WEATHER AND/OR OBSTRUCTIONS TO VISIBILITY.

  * THESE STATIONS DO NOT REPORT WEATHER SUCH AS RAIN...SNOW OR FOG.

NEZ001>004-019>022-054>056-290500-
NEBRASKA PANHANDLE

CITY           SKY/WX    TMP DP  RH WIND       PRES   REMARKS
SCOTTSBLUFF    PTCLDY    65  55  70 E5        30.14R
ALLIANCE       PTCLDY    64  56  75 SE9       30.14R
CHADRON        PTCLDY    69  49  48 W3        30.08R
KIMBALL        CLOUDY    69  47  46 SW13      30.21R
SIDNEY         CLOUDY    64  48  56 S8        30.19R
$$

NEZ057>060-069>072-079>082-290500-
SOUTHWEST NEBRASKA

CITY           SKY/WX    TMP DP  RH WIND       PRES   REMARKS
NORTH PLATTE   CLEAR     64  59  83 E5        30.14R
IMPERIAL       CLEAR     66  60  81 SE3       30.15R
LEXINGTON      CLEAR     70  64  80 S5        30.13R
MCCOOK         PTCLDY    69  61  75 SE8       30.13R
OGALLALA       CLEAR     70  58  67 CALM      30.15R
$$

NEZ005>010-023>029-035>040-094-290500-
NORTH CENTRAL NEBRASKA

CITY           SKY/WX    TMP DP  RH WIND       PRES   REMARKS
VALENTINE      CLEAR     76  55  48 S15       30.09R
AINSWORTH      CLEAR     72  63  72 S10       30.11R
BROKEN BOW     CLEAR     63  61  93 CALM      30.13R
O`NEILL        CLEAR     76  67  74 SE8       30.11R
ORD            CLEAR     71  65  81 S6        30.10S
THEDFORD       CLEAR     71  61  70 SE6       30.14S
$$

NEZ041-046>049-061>064-073>077-083>087-290500-
SOUTH CENTRAL NEBRASKA

CITY           SKY/WX    TMP DP  RH WIND       PRES   REMARKS
GRAND ISLAND   MOCLDY    72  67  84 S12       30.13R
AURORA         PTCLDY    72  68  89 S9        30.13S
HASTINGS       LGT RAIN  72  68  87 SE10      30.15R
HEBRON         TSTM      68  65  92 S14       30.15R
HOLDREGE       PTCLDY    67  63  86 CALM      30.12S
KEARNEY *      PTCLDY    72  66  83 S3        30.11R
YORK           MOCLDY    72  66  83 S10       30.13S
$$

NEZ011>018-030>034-042>045-290500-
NORTHEAST NEBRASKA

CITY           SKY/WX    TMP DP  RH WIND       PRES   REMARKS
NORFOLK        CLOUDY    71  66  84 SE7       30.12R
ALBION         CLOUDY    72  67  85 SE6       30.13R
BLAIR          PTCLDY    70  66  86 SE6       30.12R
FREMONT        PTCLDY    72  65  80 S8        30.11S
TEKAMAH        PTCLDY    69  66  90 E8        30.12R
WAYNE          PTCLDY    69  67  93 S5        30.12S
$$

NEZ050>053-065>068-078-088>093-290500-
SOUTHEAST NEBRASKA

CITY           SKY/WX    TMP DP  RH WIND       PRES   REMARKS
LINCOLN        CLOUDY    73  65  75 S7        30.13R
OMAHA EPPLEY   MOCLDY    72  66  81 SE8       30.12R
BEATRICE       RAIN      70  68  93 S6        30.16R
FALLS CITY     CLOUDY    71  68  90 SE7       30.13R
NEBRASKA CITY  MOCLDY    69  69 100 S3        30.14R
PLATTSMOUTH    CLOUDY    71  66  85 S6        30.13R
$$

NEZ044-045-051>053-067-290500-
OMAHA AREA

CITY           SKY/WX    TMP DP  RH WIND       PRES   REMARKS
OMAHA EPPLEY   MOCLDY    72  66  81 SE8       30.12R
BLAIR          PTCLDY    70  66  86 SE6       30.12R
FREMONT        PTCLDY    72  65  80 S8        30.11S
MILLARD        CLOUDY    71  66  84 SE5       30.11R
OFFUTT AFB     CLOUDY    70  69  97 E5        30.11R
PLATTSMOUTH    CLOUDY    71  66  85 S6        30.13R
WAHOO          FAIR      69  66  89 S6        30.12S
$$




USA.gov is the U.S. government's official web portal to all federal, state and local government web resources and services.